Printer-friendly version

IAU Minor Planet Center

Minor Planet Center

MPEC 2001-D27: 1996 XB27 = 2001 DJ47

The following Minor Planet Electronic Circular may be linked-to from your own Web pages, but must not otherwise be redistributed electronically.


Read MPEC 2001-D26 Read MPEC 2001-D28


M.P.E.C. 2001-D27                                Issued 2001 Feb. 21, 21:28 UT

     The Minor Planet Electronic Circulars contain information on unusual
         minor planets and routine data on comets.  They are published
   on behalf of Commission 20 of the International Astronomical Union by the
          Minor Planet Center, Smithsonian Astrophysical Observatory,
                          Cambridge, MA 02138, U.S.A.

             Prepared using the Tamkin Foundation Computer Network

                              MPC@CFA.HARVARD.EDU
          URL http://cfa-www.harvard.edu/iau/mpc.html  ISSN 1523-6714

                             1996 XB27 = 2001 DJ47

                           Revision to MPEC 1996-Y05

Observations:
     K01D47J* C2001 02 19.31836 11 12 47.96 -01 51 24.7          19.8        704
     K01D47J  C2001 02 19.33265 11 12 47.13 -01 51 13.9          19.6        704
     K01D47J  C2001 02 19.36149 11 12 45.35 -01 50 54.3          19.4        704
     K01D47J  C2001 02 20.36430 11 11 59.78 -01 38 59.6          19.8        704
     K01D47J  C2001 02 20.36978 11 11 59.60 -01 38 53.3          19.5 V      926
     K01D47J  C2001 02 20.37310 11 11 59.39 -01 38 51.3          19.3 V      926
     K01D47J  C2001 02 20.37522 11 11 59.23 -01 38 49.6          19.4 V      926
     K01D47J  C2001 02 20.37852 11 11 58.89 -01 38 47.4          19.4        704
     K01D47J  C2001 02 20.39290 11 11 57.98 -01 38 36.6          19.8        704

Observer details:
704 Lincoln Laboratory ETS, New Mexico.  Observers M. Blythe, F. Shelly,
    M. Bezpalko, R. Huber, L. Manguso, S. Adams.  Measurers J. Stuart,
    R. Sayer, J. B. Evans, H. Viggh.  1.0-m f/2.15 reflector + CCD.
926 Tenagra II Observatory.  Observers  P. R. Holvorcem, M. Schwartz.
    Measurer P. R. Holvorcem.  0.5-m f/10 Ritchey-Chretien + CCD.

Orbital elements:
1996 XB27 = 2001 DJ47
Epoch 2001 Apr. 1.0 TT = JDT 2452000.5                  Spahr
M 314.15111              (2000.0)            P               Q
n   0.76043205     Peri.   57.56023     -0.54197116     +0.84039704
a   1.1887644      Node   179.62149     -0.78476415     -0.50597259
e   0.0578656      Incl.    2.46424     -0.30068669     -0.19422812
P   1.30           H   22.0           G   0.15           U   6
Residuals in seconds of arc
961212 691  0.6+  0.6-    961218 691  0.2-  0.8+    010219 704  0.0   0.5+
961212 691  0.5+  0.3-    961218 691  1.0+  0.7-    010219 704  1.1-  0.2+
961212 691  0.1+  0.4-    961218 691  1.1-  1.1+    010220 704  0.4+  0.9-
961214 691  0.8+  0.2-    961218 691  1.7-  1.7+    010220 926  0.2+  0.2-
961214 691  0.4+  0.4-    961218 691  1.1-  1.7+    010220 926  0.2+  0.6-
961215 691  0.6+  0.9-    961231 691  0.6+  0.2+    010220 926  0.2-  0.5-
961215 691  0.7+  0.6-    961231 691  0.6+  0.2-    010220 704  0.4+  0.8+
961218 691  1.8-  1.2-    010219 704  0.2-  0.4-    010220 704  0.2+  0.9+

Ephemeris:
1996 XB27                a,e,i = 1.19, 0.06, 2                   q = 1.1200
Date    TT    R. A. (2000) Decl.     Delta      r     Elong.  Phase     V
2001 02 10    11 17.00   -03 04.7    0.225    1.185   149.2    25.2    20.3
2001 02 20    11 12.28   -01 43.0    0.197    1.176   160.7    16.1    19.7
2001 03 02    11 02.28   +00 53.5    0.177    1.167   173.1     5.9    19.0
2001 03 12    10 49.83   +04 23.8    0.167    1.159   170.3     8.3    19.0
2001 03 22    10 38.87   +08 04.8    0.166    1.151   156.8    19.9    19.4
2001 04 01    10 33.18   +11 10.5    0.171    1.143   144.4    30.6    19.8
2001 04 11    10 34.72   +13 14.1    0.182    1.136   134.1    39.3    20.1
2001 04 21    10 43.17   +14 12.0    0.196    1.131   125.8    46.1    20.5
2001 05 01    10 57.60   +14 08.8    0.211    1.126   119.3    51.3    20.8
2001 05 11    11 16.67   +13 12.9    0.228    1.123   114.2    55.1    21.0
2001 05 21    11 39.07   +11 33.6    0.244    1.121   110.4    57.9    21.3
2001 05 31    12 04.04   +09 17.6    0.261    1.120   107.4    59.8    21.5
2001 06 10    12 30.88   +06 32.9    0.279    1.121   105.1    61.0    21.7
2001 06 20    12 59.10   +03 27.0    0.297    1.123   103.4    61.7    21.8
2001 06 30    13 28.58   +00 06.7    0.317    1.126   102.0    62.0    22.0

Timothy B. Spahr             (C) Copyright 2001 MPC           M.P.E.C. 2001-D27

Read MPEC 2001-D26 Read MPEC 2001-D28


Our Web policy. Index to the CBAT/MPC/ICQ pages.


Valid HTML 4.01!